GW4289 Weather Reports


time (UTC)temp
F
wind
direction
speed
knots
gust
knots
rain 1hr
in
rain 24hr
in
rain mn
in
humidity
%
barometer
mb
20260505171537 81 46 6.1 12.2 0.00 0.00 0.00 30 1011.5
20260505171019 81 46 4.3 11.3 0.00 0.00 0.00 33 1011.4
20260505170521 81 46 6.1 14.8 0.00 0.00 0.00 33 1011.5
20260505170038 80 46 4.3 14.8 0.00 0.00 0.00 32 1011.5
20260505165518 80 46 7.8 14.8 0.00 0.00 0.00 31 1011.7
20260505165015 81 45 6.1 13.9 0.00 0.00 0.00 32 1011.6
20260505164541 80 44 6.1 13.9 0.00 0.00 0.00 33 1011.8
20260505164022 80 44 4.3 11.3 0.00 0.00 0.00 35 1011.9
20260505163522 80 45 6.1 11.3 0.00 0.00 0.00 35 1011.9
20260505163035 80 45 5.2 17.4 0.00 0.00 0.00 33 1012.0
20260505162518 79 44 5.2 17.4 0.00 0.00 0.00 35 1012.2
20260505162016 79 49 6.1 10.4 0.00 0.00 0.00 35 1012.3
20260505161534 79 49 5.2 10.4 0.00 0.00 0.00 36 1012.4
20260505161018 79 49 4.3 7.8 0.00 0.00 0.00 36 1012.4
20260505160518 79 49 3.5 13.0 0.00 0.00 0.00 37 1012.7
20260505153037 76 49 3.5 9.6 0.00 0.00 0.00 42 1012.7
20260505152520 75 49 4.3 10.4 0.00 0.00 0.00 42 1012.8
20260505152019 75 49 6.1 11.3 0.00 0.00 0.00 42 1012.7
20260505151536 75 49 3.5 11.3 0.00 0.00 0.00 44 1012.7
20260505151018 75 49 5.2 11.3 0.00 0.00 0.00 43 1012.8
20260505150518 74 49 5.2 9.6 0.00 0.00 0.00 44 1012.7
20260505140516 70 49 5.2 8.7 0.00 0.00 0.00 48 1013.0
20260505125016 64 49 1.7 7.0 0.00 0.00 0.00 54 1013.1
20260505124536 64 49 2.6 7.0 0.00 0.00 0.00 54 1013.2
20260505124018 64 49 1.7 7.0 0.00 0.00 0.00 55 1013.2
20260505123517 64 49 3.5 8.7 0.00 0.00 0.00 55 1013.1
20260505123037 63 49 3.5 8.7 0.00 0.00 0.00 56 1013.0
20260505122517 63 49 3.5 8.7 0.00 0.00 0.00 55 1013.1
20260505122016 63 49 2.6 7.8 0.00 0.00 0.00 56 1013.1
20260505121535 63 49 2.6 7.8 0.00 0.00 0.00 56 1013.1
20260505121018 63 49 2.6 7.0 0.00 0.00 0.00 56 1013.0
20260505120516 62 49 0.9 6.1 0.00 0.00 0.00 57 1013.2
20260505120034 62 49 1.7 7.8 0.00 0.00 0.00 57 1013.2
20260505115517 62 49 3.5 8.7 0.00 0.00 0.00 57 1013.0
20260505115018 62 49 3.5 8.7 0.00 0.00 0.00 57 1012.8
20260505114535 61 49 3.5 8.7 0.00 0.00 0.00 57 1012.8
20260505114020 61 49 2.6 7.8 0.00 0.00 0.00 57 1012.8
20260505113517 61 49 2.6 7.8 0.00 0.00 0.00 58 1012.6
20260505113044 61 49 1.7 7.0 0.00 0.00 0.00 58 1012.5
20260505112515 61 49 2.6 6.1 0.00 0.00 0.00 58 1012.5
20260505112016 60 49 2.6 7.8 0.00 0.00 0.00 58 1012.6
20260505111538 60 49 2.6 7.8 0.00 0.00 0.00 58 1012.5
20260505111016 60 49 4.3 7.8 0.00 0.00 0.00 58 1012.5
20260505110519 60 49 3.5 7.0 0.00 0.00 0.00 58 1012.4
20260505102015 60 49 3.5 7.0 0.00 0.00 0.00 58 1012.0
20260505101554 60 49 2.6 7.0 0.00 0.00 0.00 58 1012.0
20260505101016 60 49 2.6 7.0 0.00 0.00 0.00 59 1012.1
20260505100516 60 49 2.6 7.0 0.00 0.00 0.00 59 1011.9
20260505100054 60 49 2.6 7.0 0.00 0.00 0.00 59 1012.0
20260505095517 60 49 2.6 7.0 0.00 0.00 0.00 59 1012.0
20260505095017 60 49 2.6 7.0 0.00 0.00 0.00 59 1011.9
20260505094536 60 49 1.7 6.1 0.00 0.00 0.00 59 1011.9
20260505094015 60 49 2.6 5.2 0.00 0.00 0.00 59 1011.9
20260505093515 60 49 1.7 6.1 0.00 0.00 0.00 59 1011.9
20260505093035 60 49 2.6 6.1 0.00 0.00 0.00 59 1011.8
20260505092515 60 49 2.6 6.1 0.00 0.00 0.00 59 1011.8
20260505092015 60 49 2.6 6.1 0.00 0.00 0.00 59 1011.8
20260505091534 60 49 2.6 6.1 0.00 0.00 0.00 59 1011.7
20260505091016 60 49 2.6 5.2 0.00 0.00 0.00 59 1011.5
20260505090518 60 49 1.7 6.1 0.00 0.00 0.00 59 1011.6
20260505090038 60 49 2.6 6.1 0.00 0.00 0.00 59 1011.4
20260505085518 60 49 3.5 6.1 0.00 0.00 0.00 59 1011.4
20260505085018 60 49 2.6 6.1 0.00 0.00 0.00 59 1011.5
20260505084538 60 49 2.6 6.1 0.00 0.00 0.00 60 1011.5
20260505084016 60 49 2.6 6.1 0.00 0.00 0.00 60 1011.6
20260505083515 60 49 2.6 6.1 0.00 0.00 0.00 61 1011.5
20260505083035 60 49 2.6 6.1 0.00 0.00 0.00 61 1011.6
20260505082515 60 49 2.6 7.8 0.00 0.00 0.00 61 1011.7
20260505082018 60 49 2.6 7.8 0.00 0.00 0.00 61 1011.6
20260505081538 60 49 2.6 6.1 0.00 0.00 0.00 62 1011.6
20260505081018 59 49 2.6 5.2 0.00 0.00 0.00 62 1011.6
20260505080517 59 49 2.6 5.2 0.00 0.00 0.00 63 1011.4
20260505080047 59 49 1.7 5.2 0.00 0.00 0.00 64 1011.4
20260505075515 59 49 1.7 5.2 0.00 0.00 0.00 63 1011.4
20260505075015 59 49 1.7 5.2 0.00 0.00 0.00 63 1011.3
20260505074532 60 49 1.7 5.2 0.00 0.00 0.00 63 1011.4
20260505074015 60 49 1.7 3.5 0.00 0.00 0.00 63 1011.4
20260505073518 60 49 0.9 3.5 0.00 0.00 0.00 63 1011.4
20260505073038 60 49 0.9 3.5 0.00 0.00 0.00 62 1011.4
20260505072518 60 49 1.7 3.5 0.00 0.00 0.00 62 1011.3
20260505072017 60 49 0.9 3.5 0.00 0.00 0.00 62 1011.3
20260505071533 60 49 1.7 3.5 0.00 0.00 0.00 62 1011.3
20260505071018 61 49 1.7 3.5 0.00 0.00 0.00 62 1011.1
20260505070520 61 49 1.7 3.5 0.00 0.00 0.00 62 1011.2
20260505070032 61 49 1.7 3.5 0.00 0.00 0.00 61 1011.2
20260505065517 61 49 1.7 5.2 0.00 0.00 0.00 61 1011.2
20260505065015 61 49 1.7 6.1 0.00 0.00 0.00 61 1011.2
20260505064538 61 49 2.6 6.1 0.00 0.00 0.00 60 1011.2
20260505064017 62 49 3.5 6.1 0.00 0.00 0.00 60 1011.2
20260505063517 62 49 2.6 4.3 0.00 0.00 0.00 60 1011.2
20260505063045 62 49 1.7 5.2 0.00 0.00 0.00 59 1011.2
20260505062517 62 49 1.7 5.2 0.00 0.00 0.00 59 1011.0
20260505062017 62 49 2.6 5.2 0.00 0.00 0.00 59 1011.1
20260505061539 62 49 2.6 4.3 0.00 0.00 0.00 60 1011.1
20260505061019 62 49 2.6 4.3 0.00 0.00 0.00 60 1011.1
20260505060519 62 49 1.7 5.2 0.00 0.00 0.00 60 1011.2
20260505060035 62 49 2.6 7.0 0.00 0.00 0.00 60 1011.2
20260505055518 62 49 2.6 7.0 0.00 0.00 0.00 59 1011.1
20260505055018 63 49 2.6 7.0 0.00 0.00 0.00 59 1011.2
20260505054543 63 49 1.7 6.1 0.00 0.00 0.00 59 1011.2
20260505054016 63 49 1.7 6.1 0.00 0.00 0.00 59 1011.2
20260505053517 63 49 2.6 6.1 0.00 0.00 0.00 59 1011.3
20260505053043 63 49 2.6 5.2 0.00 0.00 0.00 60 1011.2
20260505052517 63 49 2.6 5.2 0.00 0.00 0.00 60 1011.2
20260505052019 63 49 2.6 5.2 0.00 0.00 0.00 60 1011.2
20260505051541 63 49 2.6 5.2 0.00 0.00 0.00 60 1011.2
20260505051018 63 49 1.7 3.5 0.00 0.00 0.00 60 1011.2
20260505050517 63 49 1.7 3.5 0.00 0.00 0.00 60 1011.2
20260505041537 64 49 0.9 3.5 0.00 0.00 0.00 56 1011.4
20260505041020 64 49 0.9 7.0 0.00 0.00 0.00 56 1011.4
20260505040518 64 49 0.9 7.0 0.00 0.00 0.00 56 1011.5
20260505040037 64 49 1.7 3.5 0.00 0.00 0.00 56 1011.4
20260505035521 64 49 1.7 4.3 0.00 0.00 0.00 56 1011.5
20260505035018 64 49 1.7 4.3 0.00 0.00 0.00 55 1011.4
20260505034533 65 49 1.7 4.3 0.00 0.00 0.00 55 1011.4
20260505034018 65 49 1.7 4.3 0.00 0.00 0.00 54 1011.3
20260505033515 65 49 1.7 4.3 0.00 0.00 0.00 54 1011.4
20260505033032 65 49 2.6 5.2 0.00 0.00 0.00 53 1011.4
20260505032518 65 49 1.7 5.2 0.00 0.00 0.00 53 1011.4
20260505032017 66 49 1.7 5.2 0.00 0.00 0.00 53 1011.4
20260505031538 66 49 2.6 5.2 0.00 0.00 0.00 52 1011.4
20260505031020 66 49 2.6 7.0 0.00 0.00 0.00 52 1011.3
20260505030518 66 49 2.6 7.0 0.00 0.00 0.00 51 1011.3
20260505030038 66 49 1.7 4.3 0.00 0.00 0.00 51 1011.4
20260505025519 66 49 2.6 4.3 0.00 0.00 0.00 50 1011.3
20260505025018 66 49 1.7 4.3 0.00 0.00 0.00 50 1011.3
20260505024537 67 49 1.7 4.3 0.00 0.00 0.00 49 1011.2
20260505024017 67 49 1.7 4.3 0.00 0.00 0.00 49 1011.2
20260505023517 67 49 1.7 4.3 0.00 0.00 0.00 49 1011.2
20260505023037 67 49 2.6 4.3 0.00 0.00 0.00 48 1011.2
20260505022518 67 49 1.7 4.3 0.00 0.00 0.00 48 1011.2
20260505022016 67 49 1.7 4.3 0.00 0.00 0.00 48 1011.2
20260505021537 67 49 1.7 6.1 0.00 0.00 0.00 47 1011.2
20260505021018 68 49 1.7 6.1 0.00 0.00 0.00 47 1011.2
20260505020515 68 49 1.7 7.0 0.00 0.00 0.00 47 1011.2
20260505020037 68 49 3.5 7.0 0.00 0.00 0.00 47 1011.2
20260505015519 68 49 2.6 7.0 0.00 0.00 0.00 46 1011.1
20260505015016 68 49 3.5 7.0 0.00 0.00 0.00 46 1011.1
20260505014535 68 49 2.6 6.1 0.00 0.00 0.00 46 1011.0
20260505014017 68 49 2.6 6.1 0.00 0.00 0.00 46 1011.1
20260505013517 68 49 2.6 5.2 0.00 0.00 0.00 46 1010.9
20260505013037 69 49 2.6 5.2 0.00 0.00 0.00 45 1011.0
20260505012517 69 49 2.6 5.2 0.00 0.00 0.00 45 1010.8
20260505012017 69 49 2.6 5.2 0.00 0.00 0.00 44 1010.8
20260505011541 69 49 2.6 5.2 0.00 0.00 0.00 44 1010.7
20260505011019 70 49 2.6 5.2 0.00 0.00 0.00 44 1010.7
20260505010514 70 49 2.6 6.1 0.00 0.00 0.00 44 1010.7
20260505010101 70 49 2.6 6.1 0.00 0.00 0.00 43 1010.6
20260505005519 70 49 3.5 5.2 0.00 0.00 0.00 43 1010.6
20260505005019 70 49 1.7 4.3 0.00 0.00 0.00 43 1010.5
20260505004540 71 49 1.7 6.1 0.00 0.00 0.00 42 1010.7
20260505004018 71 49 2.6 6.1 0.00 0.00 0.00 42 1010.6
20260505003515 71 49 2.6 4.3 0.00 0.00 0.00 42 1010.4
20260505003042 71 49 2.6 6.1 0.00 0.00 0.00 42 1010.5
20260505002520 71 49 2.6 6.1 0.00 0.00 0.00 41 1010.4
20260505002017 71 49 2.6 6.1 0.00 0.00 0.00 41 1010.4
20260505001538 71 49 1.7 6.1 0.00 0.00 0.00 41 1010.3
20260505001016 72 49 2.6 6.1 0.00 0.00 0.00 40 1010.3
20260505000518 72 49 2.6 6.1 0.00 0.00 0.00 40 1010.3
20260505000044 72 49 3.5 6.1 0.00 0.00 0.00 40 1010.3
20260504235518 72 49 2.6 7.0 0.00 0.00 0.00 39 1010.3
20260504235018 72 49 2.6 7.0 0.00 0.00 0.00 39 1010.3
20260504234533 73 49 2.6 7.0 0.00 0.00 0.00 39 1010.2
20260504234021 73 49 2.6 7.0 0.00 0.00 0.00 38 1010.2
20260504233518 73 49 4.3 10.4 0.00 0.00 0.00 38 1010.1
20260504233040 73 49 4.3 10.4 0.00 0.00 0.00 38 1010.2
20260504232518 73 48 3.5 10.4 0.00 0.00 0.00 38 1010.2
20260504232016 73 48 4.3 10.4 0.00 0.00 0.00 37 1010.2
20260504231544 73 48 5.2 10.4 0.00 0.00 0.00 37 1010.1
20260504231017 74 48 6.1 10.4 0.00 0.00 0.00 37 1010.1
20260504230519 74 48 4.3 11.3 0.00 0.00 0.00 36 1010.1
20260504230044 74 48 4.3 11.3 0.00 0.00 0.00 36 1010.1
20260504225519 75 48 6.1 10.4 0.00 0.00 0.00 35 1010.0
20260504225015 75 48 4.3 10.4 0.00 0.00 0.00 35 1010.0
20260504224537 75 48 5.2 10.4 0.00 0.00 0.00 34 1009.9
20260504224019 75 48 5.2 10.4 0.00 0.00 0.00 34 1010.0
20260504223518 76 48 4.3 10.4 0.00 0.00 0.00 34 1010.0
20260504223036 76 48 4.3 13.0 0.00 0.00 0.00 34 1010.0
20260504222519 76 48 6.1 13.0 0.00 0.00 0.00 34 1010.1
20260504222018 76 48 6.1 12.2 0.00 0.00 0.00 34 1010.2
20260504221553 76 48 4.3 10.4 0.00 0.00 0.00 33 1010.0
20260504221018 75 48 5.2 12.2 0.00 0.00 0.00 33 1010.0
20260504220519 75 48 6.1 13.0 0.00 0.00 0.00 33 1010.0
20260504220037 76 49 5.2 13.9 0.00 0.00 0.00 33 1009.9
20260504215521 76 49 6.1 13.9 0.00 0.00 0.00 32 1009.9
20260504215018 76 49 6.1 13.9 0.00 0.00 0.00 32 1009.9
20260504214537 76 48 5.2 10.4 0.00 0.00 0.00 33 1010.0
20260504214018 76 48 6.1 10.4 0.00 0.00 0.00 31 1010.0
20260504213516 76 48 5.2 13.9 0.00 0.00 0.00 32 1010.1
20260504213047 76 48 6.1 13.9 0.00 0.00 0.00 32 1009.9
20260504212520 76 48 7.0 13.0 0.00 0.00 0.00 32 1010.1
20260504212017 76 47 7.0 12.2 0.00 0.00 0.00 32 1010.0
20260504211544 77 48 6.1 12.2 0.00 0.00 0.00 31 1010.0
20260504211018 77 48 5.2 13.9 0.00 0.00 0.00 31 1009.9
20260504210515 77 48 4.3 13.9 0.00 0.00 0.00 31 1010.0
20260504210038 76 48 7.0 14.8 0.00 0.00 0.00 31 1009.9
20260504205518 76 48 4.3 14.8 0.00 0.00 0.00 31 1009.9
20260504205018 76 48 7.8 14.8 0.00 0.00 0.00 30 1009.9
20260504204537 77 48 4.3 13.9 0.00 0.00 0.00 31 1010.1
20260504204018 77 49 6.1 11.3 0.00 0.00 0.00 30 1009.9
20260504203517 77 48 4.3 10.4 0.00 0.00 0.00 29 1010.0
20260504203046 78 49 2.6 7.0 0.00 0.00 0.00 29 1009.9
20260504202519 78 49 3.5 9.6 0.00 0.00 0.00 30 1010.0
20260504202018 77 49 2.6 10.4 0.00 0.00 0.00 30 1010.1
20260504201540 77 49 5.2 10.4 0.00 0.00 0.00 30 1010.2
20260504201018 77 49 3.5 7.8 0.00 0.00 0.00 29 1010.2
20260504200521 76 49 2.6 8.7 0.00 0.00 0.00 30 1010.3
20260504200038 76 49 3.5 8.7 0.00 0.00 0.00 30 1010.6
20260504195517 76 49 5.2 10.4 0.00 0.00 0.00 31 1010.7
20260504195017 76 49 4.3 11.3 0.00 0.00 0.00 29 1010.7
20260504194539 77 49 7.0 11.3 0.00 0.00 0.00 30 1010.7
20260504194018 77 49 3.5 9.6 0.00 0.00 0.00 30 1010.7
20260504193520 77 49 3.5 10.4 0.00 0.00 0.00 30 1010.7
20260504193037 76 49 3.5 10.4 0.00 0.00 0.00 30 1010.7
20260504192519 76 49 5.2 10.4 0.00 0.00 0.00 30 1010.9
20260504192016 76 49 3.5 11.3 0.00 0.00 0.00 30 1011.1
20260504191540 75 49 6.1 13.0 0.00 0.00 0.00 30 1011.2
20260504191018 76 49 6.1 13.0 0.00 0.00 0.00 30 1011.2
20260504190518 76 49 3.5 12.2 0.00 0.00 0.00 29 1011.2
20260504190034 76 49 4.3 12.2 0.00 0.00 0.00 29 1011.4
20260504185517 76 49 1.7 13.9 0.00 0.00 0.00 30 1011.7
20260504185017 76 49 6.1 13.9 0.00 0.00 0.00 30 1011.8
20260504184535 76 49 6.1 13.9 0.00 0.00 0.00 30 1011.8
20260504184018 76 49 4.3 12.2 0.00 0.00 0.00 30 1011.8
20260504183516 76 49 3.5 8.7 0.00 0.00 0.00 31 1011.9
20260504183037 75 49 1.7 9.6 0.00 0.00 0.00 31 1011.9
20260504182522 75 49 1.7 9.6 0.00 0.00 0.00 30 1012.0
20260504182018 75 49 4.3 13.0 0.00 0.00 0.00 31 1012.0
20260504181538 74 49 4.3 13.0 0.00 0.00 0.00 31 1012.2
20260504181020 74 49 6.1 12.2 0.00 0.00 0.00 32 1012.2
20260504180519 74 49 6.1 12.2 0.00 0.00 0.00 32 1012.2
20260504180045 74 49 2.6 12.2 0.00 0.00 0.00 32 1012.3
20260504175518 73 49 6.1 12.2 0.00 0.00 0.00 32 1012.3
20260504175018 73 49 3.5 11.3 0.00 0.00 0.00 32 1012.5
20260504174532 73 49 5.2 11.3 0.00 0.00 0.00 32 1012.6
20260504174018 73 49 3.5 14.8 0.00 0.00 0.00 33 1012.5
20260504173518 73 49 5.2 14.8 0.00 0.00 0.00 33 1012.6
20260504173035 73 49 2.6 7.8 0.00 0.00 0.00 33 1012.6
20260504172518 72 49 3.5 8.7 0.00 0.00 0.00 33 1012.7
20260504172016 72 49 4.3 12.2 0.00 0.00 0.00 33 1012.9